User: anonymous   Login
Location: Unspecified
(0.0000°N, 0.0000°E)
Time: 06:53:23
(UTC+00:00)
Language:

CZ-3 Stage 3 - Orbit

View from above orbital plane
View from above orbital plane
View from above satellite
View from above satellite

Ground track
Ground track

The orbit data is extracted from the following two-line orbital elements,

1 14900U 84035B   19110.35302097 -.00000060  00000-0  13968-3 0  9992
2 14900  30.5049 179.2895 7134541 350.7547   1.2643  2.33876600230482
Epoch (UTC): 20 April 2019 08:28:21
Eccentricity: 0.7134541
inclination: 30.5049°
perigee height: 491 km
apogee height: 34700 km
right ascension of ascending node: 179.2895°
argument of perigee: 350.7547°
revolutions per day: 2.33876600
mean anomaly at epoch: 1.2643°
orbit number at epoch: 23048

The dashed part of the orbit path shows where the satellite is in the earth's shadow,  

DLR